Weather History for Glasgow, KY

Change the Weather History Date:

Sunday, February 3, 2013

  Actual Average Record
Temperature  
Mean Temperature 28 °F -  
Max Temperature 35 °F 44 °F 70 °F (1962)
Min Temperature 22 °F 27 °F -2 °F (1965)
Degree Days  
Heating Degree Days 36    
Moisture  
Dew Point 20 °F    
Average Humidity 65    
Maximum Humidity 96    
Minimum Humidity 42    
Precipitation  
Precipitation 0.07 in - - ()
Sea Level Pressure  
Sea Level Pressure 30.09 in    
Wind  
Wind Speed 4 mph (West)    
Max Wind Speed 16 mph    
Max Gust Speed 24 mph    
Visibility 8 miles    
Events Snow    
Averages and records for this station are not official NWS values.
T = Trace of Precipitation, MM = Missing Value Source: NWS Daily Summary

Daily Weather History Graph

Daily Weather History Graph

Search for Another Location

Airport:

Trip Planner

Search our weather history database for the weather conditions in past years. The results will help you decide how hot, cold, wet, or windy it might be!

Date:

Astronomy

Feb. 03, 2013 Rise Set
Actual Time 6:44 AM CST 5:11 PM CST
Civil Twilight 6:17 AM CST 5:38 PM CST
Nautical Twilight 5:46 AM CST 6:09 PM CST
Astronomical Twilight 5:15 AM CST 6:40 PM CST
Moon 12:10 AM CST (2/3) 10:49 AM CST (2/3)
Length of Visible Light 11h 21m
Length of Day
10h 26m
Waning Gibbous, 48% of the Moon is Illuminated
Feb 3
Waning Gibbous
Feb 10
New
Feb 17
First Quarter
Feb 25
Full
Mar 4
Last Quarter

Hourly Weather History & Observations

Time (CST) Temp. Windchill Dew Point Humidity Pressure Visibility Wind Dir Wind Speed Gust Speed Precip Events Conditions
12:15 AM 32.0 °F 28.7 °F 23.5 °F 71% 30.08 in 10.0 mi WSW 3.5 mph - N/A   Mostly Cloudy
12:35 AM 31.6 °F - 23.0 °F 70% 30.07 in 10.0 mi Calm Calm - N/A   Mostly Cloudy
12:55 AM 30.4 °F 26.9 °F 24.1 °F 77% 30.07 in 10.0 mi SW 3.5 mph - N/A   Scattered Clouds
1:15 AM 29.5 °F 25.9 °F 26.1 °F 87% 30.07 in 7.0 mi SW 3.5 mph - N/A   Scattered Clouds
1:35 AM 29.7 °F 26.1 °F 27.0 °F 90% 30.06 in 7.0 mi SW 3.5 mph - N/A   Mostly Cloudy
2:15 AM 30.9 °F - 28.2 °F 90% 30.04 in 7.0 mi Calm Calm - N/A   Overcast
2:35 AM 31.1 °F - 28.2 °F 89% 30.04 in 7.0 mi Calm Calm - N/A   Overcast
2:55 AM 31.3 °F - 28.6 °F 90% 30.03 in 7.0 mi Calm Calm - N/A   Overcast
3:15 AM 31.8 °F 28.5 °F 29.1 °F 90% 30.02 in 7.0 mi SW 3.5 mph - N/A   Overcast
3:55 AM 32.0 °F 28.7 °F 27.7 °F 84% 30.01 in 5.0 mi WSW 3.5 mph - N/A Snow Light Snow
4:15 AM 32.0 °F 27.5 °F 29.5 °F 90% 30.00 in 1.2 mi SW 4.6 mph - N/A Snow Snow
4:35 AM 32.0 °F 27.5 °F 30.4 °F 94% 30.00 in 0.8 mi SW 4.6 mph - N/A Snow Snow
5:15 AM 32.0 °F 27.5 °F 31.1 °F 96% 29.99 in 1.5 mi WSW 4.6 mph - N/A Snow Light Snow
5:35 AM 32.0 °F 28.7 °F 31.1 °F 96% 29.99 in 2.0 mi WSW 3.5 mph - N/A Snow Light Snow
5:55 AM 32.0 °F 28.7 °F 31.1 °F 96% 29.98 in 4.0 mi WSW 3.5 mph - N/A Snow Light Snow
6:15 AM 32.2 °F 28.9 °F 31.1 °F 96% 29.98 in 7.0 mi WSW 3.5 mph - N/A   Overcast
6:35 AM 32.2 °F - 31.1 °F 96% 29.99 in 7.0 mi Calm Calm - N/A   Overcast
6:55 AM 32.2 °F 28.9 °F 31.1 °F 96% 29.98 in 4.0 mi SW 3.5 mph - N/A   Overcast
7:15 AM - - - N/A% 29.99 in 4.0 mi WSW 6.9 mph - N/A   Overcast
7:35 AM - - - N/A% 30.00 in 4.0 mi WSW 4.6 mph - N/A   Haze
7:55 AM - - - N/A% 30.01 in 4.0 mi West 4.6 mph - N/A   Haze
8:15 AM - - - N/A% 30.01 in 4.0 mi WSW 4.6 mph - N/A   Haze
8:35 AM - - - N/A% 30.01 in 5.0 mi WSW 5.8 mph - N/A   Overcast
8:55 AM 34.2 °F 29.0 °F 31.3 °F 89% 30.02 in 5.0 mi West 5.8 mph - 0.02 in   Haze
9:15 AM 34.7 °F 28.1 °F 28.6 °F 78% 30.02 in 7.0 mi West 8.1 mph - 0.04 in   Overcast
9:35 AM 35.2 °F 29.5 °F 25.3 °F 67% 30.02 in 7.0 mi West 6.9 mph - 0.05 in   Overcast
9:55 AM 34.7 °F 28.8 °F 27.1 °F 74% 30.03 in 10.0 mi West 6.9 mph - 0.05 in   Overcast
10:15 AM 34.7 °F 28.1 °F 26.4 °F 72% 30.03 in 10.0 mi West 8.1 mph - N/A   Overcast
10:35 AM 34.9 °F 27.7 °F 24.1 °F 65% 30.04 in 10.0 mi West 9.2 mph - N/A   Overcast
10:55 AM 34.9 °F 27.1 °F 21.7 °F 59% 30.05 in 10.0 mi West 10.4 mph 16.1 mph N/A   Overcast
11:15 AM 35.4 °F 29.0 °F 20.5 °F 55% 30.06 in 10.0 mi WNW 8.1 mph 16.1 mph N/A   Overcast
11:35 AM 34.9 °F 26.6 °F 19.2 °F 53% 30.07 in 10.0 mi NW 11.5 mph 19.6 mph N/A   Overcast
11:55 AM 34.0 °F 26.0 °F 17.6 °F 51% 30.08 in 10.0 mi WNW 10.4 mph 16.1 mph N/A   Overcast
12:15 PM 34.2 °F 24.0 °F 15.8 °F 47% 30.08 in 10.0 mi WNW 16.1 mph 20.7 mph N/A   Overcast
12:55 PM 33.6 °F 24.1 °F 14.0 °F 45% 30.10 in 10.0 mi WNW 13.8 mph 23.0 mph N/A   Overcast
1:15 PM 33.1 °F 24.4 °F 12.9 °F 43% 30.10 in 10.0 mi WNW 11.5 mph 24.2 mph N/A   Overcast
1:35 PM 32.9 °F 24.1 °F 13.6 °F 45% 30.10 in 10.0 mi WNW 11.5 mph 18.4 mph N/A   Overcast
1:55 PM 33.1 °F 24.9 °F 12.6 °F 43% 30.11 in 10.0 mi WNW 10.4 mph - N/A   Overcast
2:35 PM 33.1 °F 24.9 °F 12.0 °F 42% 30.12 in 10.0 mi WNW 10.4 mph - N/A   Overcast
2:55 PM 32.9 °F 25.3 °F 12.6 °F 43% 30.13 in 10.0 mi WNW 9.2 mph 18.4 mph N/A   Overcast
3:15 PM 32.9 °F 26.7 °F 13.3 °F 44% 30.13 in 10.0 mi WNW 6.9 mph - N/A   Overcast
3:35 PM 32.9 °F 27.5 °F 13.3 °F 44% 30.14 in 10.0 mi WNW 5.8 mph - N/A   Overcast
3:55 PM 32.7 °F 29.6 °F 14.0 °F 46% 30.13 in 10.0 mi WNW 3.5 mph - N/A   Overcast
4:15 PM 32.5 °F 29.3 °F 14.4 °F 47% 30.13 in 10.0 mi West 3.5 mph - N/A   Overcast
4:35 PM 32.5 °F - 14.7 °F 48% 30.13 in 10.0 mi Calm Calm - N/A   Overcast
4:55 PM 32.7 °F 28.3 °F 15.1 °F 48% 30.14 in 10.0 mi WNW 4.6 mph - N/A   Overcast
5:15 PM 32.9 °F 27.5 °F 15.3 °F 48% 30.14 in 10.0 mi WNW 5.8 mph - N/A   Overcast
5:35 PM 32.5 °F 28.1 °F 15.1 °F 49% 30.14 in 10.0 mi WNW 4.6 mph - N/A   Overcast
5:55 PM 32.0 °F 24.2 °F 13.8 °F 47% 30.15 in 10.0 mi WNW 9.2 mph - N/A   Scattered Clouds
6:15 PM 31.8 °F 27.3 °F 12.9 °F 46% 30.16 in 10.0 mi WNW 4.6 mph - N/A   Clear
6:35 PM 31.1 °F 25.4 °F 12.9 °F 47% 30.17 in 10.0 mi NW 5.8 mph - N/A   Clear
6:55 PM 30.9 °F 27.5 °F 12.4 °F 46% 30.17 in 10.0 mi NW 3.5 mph - N/A   Clear
7:15 PM 30.0 °F - 12.4 °F 48% 30.17 in 10.0 mi Calm Calm - N/A   Scattered Clouds
7:35 PM 28.9 °F - 12.9 °F 51% 30.17 in 10.0 mi Calm Calm - N/A   Mostly Cloudy
7:55 PM 28.9 °F - 13.1 °F 52% 30.17 in 10.0 mi Calm Calm - N/A   Mostly Cloudy
8:15 PM 28.4 °F - 12.9 °F 52% 30.17 in 10.0 mi Calm Calm - N/A   Clear
8:35 PM 28.0 °F 24.2 °F 11.7 °F 50% 30.17 in 10.0 mi North 3.5 mph - N/A   Clear
8:55 PM 27.5 °F - 10.8 °F 49% 30.17 in 10.0 mi Calm Calm - N/A   Clear
9:15 PM 26.6 °F - 10.6 °F 51% 30.17 in 10.0 mi Calm Calm - N/A   Clear
9:35 PM 25.2 °F - 10.4 °F 54% 30.17 in 10.0 mi Calm Calm - N/A   Clear
9:55 PM 25.0 °F - 10.9 °F 55% 30.15 in 10.0 mi Calm Calm - N/A   Clear
10:15 PM 24.4 °F - 12.4 °F 60% 30.16 in 10.0 mi Calm Calm - N/A   Clear
10:35 PM 24.6 °F - 15.1 °F 67% 30.16 in 10.0 mi Calm Calm - N/A   Clear
10:55 PM 22.8 °F - 12.0 °F 63% 30.16 in 10.0 mi Calm Calm - N/A   Clear
11:15 PM 23.4 °F - 15.6 °F 72% 30.15 in 10.0 mi Calm Calm - N/A   Clear
11:35 PM 22.5 °F - 15.6 °F 75% 30.14 in 7.0 mi Calm Calm - N/A   Clear
11:55 PM 22.3 °F - 18.5 °F 85% 30.13 in 7.0 mi Calm Calm - N/A   Clear